VPCLM EGAC-EGNV

Flight info

Callsign VPCLM
Flight time 0h 33m
Altitude 23000
Route MAGEE DCT BLACA DCT SHAPP
Aircraft A20N/M-SDE2E3FGHIJ1RWXY/LB1

Departure

Time 2026-05-07 09:18
Airport George Best Belfast City Airport (EGAC)

Arrival

Time 2026-05-07 09:51
Airport Teesside International Airport (EGNV)
Time Latitude Longitude Altitude Speed Heading
2026-05-07 08:50 54.61165 -5.87510 24 ft 0 kts 99°
2026-05-07 09:05 54.61165 -5.87512 24 ft 1 kts 99°
2026-05-07 09:06 54.61167 -5.87536 24 ft 2 kts 99°
2026-05-07 09:06 54.61170 -5.87562 24 ft 2 kts 99°
2026-05-07 09:06 54.61172 -5.87579 24 ft 0 kts 99°
2026-05-07 09:06 54.61171 -5.87604 24 ft 2 kts 64°
2026-05-07 09:07 54.61162 -5.87624 24 ft 2 kts 31°
2026-05-07 09:07 54.61152 -5.87631 24 ft 0 kts
2026-05-07 09:07 54.61145 -5.87631 24 ft 0 kts
2026-05-07 09:09 54.61147 -5.87631 24 ft 1 kts
2026-05-07 09:10 54.61171 -5.87636 24 ft 4 kts 344°
2026-05-07 09:10 54.61209 -5.87641 24 ft 6 kts 10°
2026-05-07 09:10 54.61252 -5.87603 24 ft 7 kts 33°
2026-05-07 09:10 54.61301 -5.87545 24 ft 9 kts 34°
2026-05-07 09:11 54.61357 -5.87477 24 ft 10 kts 35°
2026-05-07 09:11 54.61412 -5.87381 24 ft 11 kts 53°
2026-05-07 09:11 54.61478 -5.87287 24 ft 12 kts 34°
2026-05-07 09:11 54.61553 -5.87197 24 ft 13 kts 35°
2026-05-07 09:12 54.61634 -5.87099 24 ft 13 kts 34°
2026-05-07 09:12 54.61692 -5.87029 24 ft 7 kts 34°
2026-05-07 09:12 54.61734 -5.86988 24 ft 4 kts 13°
2026-05-07 09:12 54.61758 -5.86996 24 ft 2 kts 327°
2026-05-07 09:13 54.61765 -5.87006 24 ft 0 kts 309°
2026-05-07 09:13 54.61766 -5.87008 24 ft 0 kts 309°
2026-05-07 09:13 54.61773 -5.87022 24 ft 2 kts 309°
2026-05-07 09:14 54.61785 -5.87051 24 ft 3 kts 306°
2026-05-07 09:14 54.61814 -5.87122 24 ft 9 kts 305°
2026-05-07 09:14 54.61876 -5.87164 24 ft 10 kts 16°
2026-05-07 09:14 54.61945 -5.87091 24 ft 13 kts 34°
2026-05-07 09:15 54.62043 -5.86975 24 ft 19 kts 34°
2026-05-07 09:15 54.62157 -5.86838 24 ft 20 kts 35°
2026-05-07 09:15 54.62271 -5.86698 24 ft 20 kts 34°
2026-05-07 09:15 54.62385 -5.86555 24 ft 19 kts 44°
2026-05-07 09:16 54.62444 -5.86433 24 ft 9 kts 39°
2026-05-07 09:16 54.62470 -5.86458 24 ft 4 kts 258°
2026-05-07 09:16 54.62454 -5.86485 24 ft 0 kts 213°
2026-05-07 09:16 54.62452 -5.86487 24 ft 1 kts 213°
2026-05-07 09:17 54.62442 -5.86498 24 ft 2 kts 213°
2026-05-07 09:17 54.62398 -5.86547 24 ft 22 kts 213°
2026-05-07 09:17 54.62094 -5.86911 24 ft 92 kts 215°
2026-05-07 09:17 54.61377 -5.87762 176 ft 144 kts 214°
2026-05-07 09:18 54.60536 -5.88757 890 ft 149 kts 214°
2026-05-07 09:18 54.59709 -5.89727 1777 ft 147 kts 210°
2026-05-07 09:18 54.58704 -5.90048 2369 ft 163 kts 166°
2026-05-07 09:18 54.57821 -5.88711 2870 ft 189 kts 116°
2026-05-07 09:19 54.57788 -5.86321 3341 ft 220 kts 70°
2026-05-07 09:19 54.58618 -5.83997 3976 ft 240 kts 52°
2026-05-07 09:19 54.59728 -5.81731 4645 ft 259 kts 49°
2026-05-07 09:19 54.60940 -5.79279 5324 ft 277 kts 50°
2026-05-07 09:20 54.62160 -5.76690 6196 ft 287 kts 52°
2026-05-07 09:20 54.63397 -5.73965 7210 ft 291 kts 52°
2026-05-07 09:20 54.64623 -5.71203 8070 ft 296 kts 53°
2026-05-07 09:20 54.65881 -5.68330 8652 ft 300 kts 53°
2026-05-07 09:21 54.67140 -5.65432 9182 ft 308 kts 53°
2026-05-07 09:21 54.68415 -5.62483 10212 ft 310 kts 53°
2026-05-07 09:21 54.69702 -5.59500 11040 ft 320 kts 53°
2026-05-07 09:21 54.71059 -5.56350 11733 ft 333 kts 53°
2026-05-07 09:22 54.72437 -5.53148 12696 ft 336 kts 53°
2026-05-07 09:22 54.73839 -5.49885 13441 ft 343 kts 53°
2026-05-07 09:22 54.75270 -5.46546 14272 ft 349 kts 52°
2026-05-07 09:22 54.76723 -5.43153 15091 ft 355 kts 52°
2026-05-07 09:23 54.78187 -5.39728 15856 ft 362 kts 52°
2026-05-07 09:23 54.79715 -5.36144 16622 ft 370 kts 52°
2026-05-07 09:23 54.81238 -5.32566 17355 ft 376 kts 53°
2026-05-07 09:23 54.82747 -5.29015 18048 ft 383 kts 53°
2026-05-07 09:24 54.84338 -5.25264 18754 ft 390 kts 53°
2026-05-07 09:24 54.85883 -5.21404 19421 ft 396 kts 62°
2026-05-07 09:24 54.86725 -5.16821 20050 ft 396 kts 90°
2026-05-07 09:24 54.86466 -5.12059 20661 ft 387 kts 112°
2026-05-07 09:25 54.85630 -5.07581 21071 ft 389 kts 117°
2026-05-07 09:25 54.84738 -5.03142 21724 ft 395 kts 116°
2026-05-07 09:25 54.83935 -4.98732 22386 ft 400 kts 115°
2026-05-07 09:25 54.83168 -4.94045 22833 ft 412 kts 113°
2026-05-07 09:26 54.82426 -4.89139 22980 ft 432 kts 111°
2026-05-07 09:26 54.81677 -4.83908 22984 ft 455 kts 110°
2026-05-07 09:26 54.80925 -4.78467 22984 ft 471 kts 110°
2026-05-07 09:26 54.80175 -4.72909 22985 ft 475 kts 109°
2026-05-07 09:27 54.79428 -4.67322 22986 ft 476 kts 109°
2026-05-07 09:27 54.78682 -4.61750 22987 ft 476 kts 109°
2026-05-07 09:27 54.77184 -4.50655 22989 ft 476 kts 109°
2026-05-07 09:28 54.76413 -4.44995 22991 ft 476 kts 109°
2026-05-07 09:28 54.75657 -4.39468 22992 ft 476 kts 109°
2026-05-07 09:28 54.74883 -4.33839 22763 ft 476 kts 110°
2026-05-07 09:28 54.74122 -4.28296 22387 ft 471 kts 110°
2026-05-07 09:29 54.73369 -4.22817 22012 ft 467 kts 110°
2026-05-07 09:29 54.72614 -4.17363 21636 ft 463 kts 110°
2026-05-07 09:29 54.71862 -4.11960 21261 ft 460 kts 110°
2026-05-07 09:29 54.71107 -4.06559 21010 ft 457 kts 110°
2026-05-07 09:30 54.70356 -4.01211 21002 ft 457 kts 110°
2026-05-07 09:30 54.69608 -3.95910 21002 ft 457 kts 110°
2026-05-07 09:30 54.68843 -3.90513 21002 ft 457 kts 110°
2026-05-07 09:30 54.68078 -3.85125 21002 ft 457 kts 110°
2026-05-07 09:31 54.67318 -3.79795 21002 ft 457 kts 110°
2026-05-07 09:31 54.66559 -3.74484 21004 ft 457 kts 110°
2026-05-07 09:31 54.65770 -3.68980 21009 ft 457 kts 110°
2026-05-07 09:31 54.64994 -3.63595 21016 ft 457 kts 110°
2026-05-07 09:32 54.64222 -3.58250 21025 ft 457 kts 110°
2026-05-07 09:32 54.63456 -3.52961 20931 ft 456 kts 110°
2026-05-07 09:32 54.62680 -3.47624 20679 ft 454 kts 110°
2026-05-07 09:32 54.61914 -3.42372 20351 ft 451 kts 110°
2026-05-07 09:33 54.61152 -3.37172 19903 ft 446 kts 109°
2026-05-07 09:33 54.60397 -3.32027 19426 ft 442 kts 110°
2026-05-07 09:33 54.59640 -3.26891 18868 ft 438 kts 110°
2026-05-07 09:33 54.58895 -3.21852 18254 ft 433 kts 110°
2026-05-07 09:34 54.58151 -3.16830 17790 ft 426 kts 110°
2026-05-07 09:34 54.57422 -3.11926 17342 ft 423 kts 110°
2026-05-07 09:34 54.56721 -3.07224 16908 ft 419 kts 110°
2026-05-07 09:34 54.55999 -3.02400 16458 ft 415 kts 110°
2026-05-07 09:35 54.55276 -2.97582 16005 ft 411 kts 110°
2026-05-07 09:35 54.54559 -2.92818 15553 ft 408 kts 110°
2026-05-07 09:35 54.53854 -2.88147 15111 ft 404 kts 110°
2026-05-07 09:35 54.53147 -2.83477 14804 ft 402 kts 109°
2026-05-07 09:36 54.52439 -2.78822 14452 ft 399 kts 109°
2026-05-07 09:36 54.51725 -2.74147 14009 ft 396 kts 109°
2026-05-07 09:36 54.51023 -2.69558 13505 ft 392 kts 109°
2026-05-07 09:36 54.50408 -2.64951 12971 ft 392 kts 102°
2026-05-07 09:37 54.50219 -2.60320 12444 ft 392 kts 91°
2026-05-07 09:37 54.50457 -2.55638 11946 ft 390 kts 84°
2026-05-07 09:37 54.50845 -2.51045 11480 ft 385 kts 83°
2026-05-07 09:37 54.51249 -2.46543 11069 ft 377 kts 83°
2026-05-07 09:38 54.51639 -2.42121 10704 ft 367 kts 84°
2026-05-07 09:38 54.52001 -2.37862 10519 ft 353 kts 84°
2026-05-07 09:38 54.52343 -2.33764 10370 ft 338 kts 85°
2026-05-07 09:38 54.52669 -2.29782 10247 ft 323 kts 86°
2026-05-07 09:39 54.52969 -2.26055 10143 ft 309 kts 86°
2026-05-07 09:39 54.53256 -2.22462 10059 ft 298 kts 86°
2026-05-07 09:39 54.53533 -2.18899 9733 ft 298 kts 86°
2026-05-07 09:39 54.53808 -2.15400 9400 ft 296 kts 86°
2026-05-07 09:40 54.54081 -2.11865 9050 ft 294 kts 86°
2026-05-07 09:40 54.54352 -2.08379 8711 ft 293 kts 86°
2026-05-07 09:40 54.54625 -2.04912 8412 ft 289 kts 86°
2026-05-07 09:40 54.54887 -2.01513 8116 ft 288 kts 86°
2026-05-07 09:41 54.55154 -1.98100 7752 ft 284 kts 86°
2026-05-07 09:41 54.55411 -1.94807 7378 ft 267 kts 87°
2026-05-07 09:41 54.55650 -1.91745 7004 ft 254 kts 87°
2026-05-07 09:41 54.55877 -1.88767 6667 ft 250 kts 87°
2026-05-07 09:42 54.56097 -1.85820 6367 ft 248 kts 87°
2026-05-07 09:42 54.56318 -1.82872 6087 ft 246 kts 87°
2026-05-07 09:42 54.56538 -1.79947 5838 ft 246 kts 87°
2026-05-07 09:42 54.56757 -1.77023 5587 ft 245 kts 87°
2026-05-07 09:43 54.56974 -1.74136 5339 ft 244 kts 86°
2026-05-07 09:43 54.57194 -1.71223 5087 ft 243 kts 86°
2026-05-07 09:43 54.57410 -1.68360 4838 ft 241 kts 86°
2026-05-07 09:43 54.57625 -1.65498 4584 ft 237 kts 86°
2026-05-07 09:44 54.57834 -1.62718 4333 ft 233 kts 86°
2026-05-07 09:44 54.58067 -1.59996 4085 ft 230 kts 85°
2026-05-07 09:44 54.58312 -1.57297 3833 ft 226 kts 85°
2026-05-07 09:44 54.58558 -1.54605 3579 ft 223 kts 84°
2026-05-07 09:45 54.58795 -1.52007 3332 ft 220 kts 84°
2026-05-07 09:45 54.59030 -1.49422 3080 ft 218 kts 84°
2026-05-07 09:45 54.59261 -1.46854 2829 ft 215 kts 85°
2026-05-07 09:45 54.59486 -1.44335 2583 ft 209 kts 85°
2026-05-07 09:46 54.59704 -1.41933 2344 ft 196 kts 84°
2026-05-07 09:46 54.59909 -1.39744 2159 ft 176 kts 84°
2026-05-07 09:46 54.60104 -1.37713 1896 ft 168 kts 84°
2026-05-07 09:46 54.60292 -1.35766 1635 ft 161 kts 84°
2026-05-07 09:47 54.60448 -1.33876 1368 ft 153 kts 96°
2026-05-07 09:47 54.60075 -1.32372 1229 ft 129 kts 147°
2026-05-07 09:47 54.59243 -1.31919 1248 ft 128 kts 175°
2026-05-07 09:47 54.58351 -1.31827 1228 ft 126 kts 179°
2026-05-07 09:48 54.57506 -1.31827 1198 ft 119 kts 190°
2026-05-07 09:48 54.56773 -1.32444 1209 ft 120 kts 215°
2026-05-07 09:48 54.56136 -1.33397 1213 ft 120 kts 220°
2026-05-07 09:48 54.55526 -1.34388 1212 ft 120 kts 222°
2026-05-07 09:49 54.54945 -1.35425 1094 ft 120 kts 224°
2026-05-07 09:49 54.54382 -1.36475 937 ft 119 kts 224°
2026-05-07 09:49 54.53823 -1.37521 783 ft 119 kts 224°
2026-05-07 09:49 54.53262 -1.38569 625 ft 119 kts 224°
2026-05-07 09:50 54.52702 -1.39614 467 ft 118 kts 224°
2026-05-07 09:50 54.52146 -1.40654 308 ft 118 kts 224°
2026-05-07 09:50 54.51597 -1.41682 153 ft 116 kts 224°
2026-05-07 09:50 54.51110 -1.42582 129 ft 82 kts 227°
2026-05-07 09:51 54.50837 -1.43091 129 ft 35 kts 227°
2026-05-07 09:51 54.50687 -1.43372 129 ft 21 kts 227°
2026-05-07 09:51 54.50595 -1.43555 129 ft 17 kts 237°
2026-05-07 09:51 54.50561 -1.43628 129 ft 2 kts 139°
2026-05-07 09:52 54.50578 -1.43576 129 ft 11 kts 49°
2026-05-07 09:52 54.50666 -1.43413 129 ft 20 kts 47°
2026-05-07 09:52 54.50764 -1.43229 129 ft 21 kts 47°
2026-05-07 09:52 54.50865 -1.43043 129 ft 21 kts 47°
2026-05-07 09:53 54.50962 -1.42857 129 ft 17 kts 49°
2026-05-07 09:53 54.51031 -1.42765 129 ft 8 kts 356°
2026-05-07 09:53 54.51059 -1.42843 129 ft 8 kts 272°
2026-05-07 09:53 54.51060 -1.42954 129 ft 10 kts 271°
2026-05-07 09:54 54.51062 -1.43083 129 ft 11 kts 275°
2026-05-07 09:54 54.51098 -1.43197 129 ft 8 kts 329°
2026-05-07 09:54 54.51140 -1.43240 129 ft 6 kts 332°
2026-05-07 09:54 54.51149 -1.43248 129 ft 0 kts 332°